Location: Newark
(49.8969°N, 3.3422°E)
Time: 15:55:49
(UTC+00:00)

Envisat - Pass Details

Date: 15 December 2019
Orbit: 764 x 766 km, 98.1° (Epoch: 18 January)

Event Time Altitude Azimuth Distance (km) Brightness Sun altitude
Rises 16:13:04 0° 124° (SE) 3,227 6.0 -4.5°
Reaches altitude 10° 16:15:46 10° 111° (ESE) 2,305 5.1 -4.9°
Maximum altitude 16:19:42 23° 60° (ENE) 1,581 4.1 -5.4°
Drops below altitude 10° 16:23:39 10° 9° (N) 2,316 5.1 -6.0°
Sets 16:26:22 0° 355° (N) 3,247 6.0 -6.4°
